Tracking 30143 objects as of 20-Jan-2025
HD Live streaming from Space Station
objects crossing your sky now

INTELSAT 906

Track INTELSAT 906 now!
INTELSAT 906 is classified as:


NORAD ID: 27513
Int'l Code: 2002-041A
Perigee: 35,769.9 km
Apogee: 35,818.3 km
Inclination: 4.5 °
Period: 1,436.1 minutes
Semi major axis: 42165 km
RCS: 22.5892 m2 (large)
Launch date: September 6, 2002
Source: International Telecommunications Satellite Organization (ITSO)
Launch site: FRENCH GUIANA (FRGUI)

72 C-band, 22 Ku-band, broadcasting, business services, direct-to-home TV broadcasting, telecommunications, VSAT networks.
Your satellite tracking list
Your tracking list is empty




NASA's NSSDC Master Catalog

Two Line Element Set (TLE):
1 27513U 02041A   25019.83583049  .00000025  00000-0  00000-0 0  9999
2 27513   4.4926  79.2678 0005735 198.4361 206.7826  1.00270553 81885
Source of the keplerian elements: AFSPC